Location: Newark
(36.0797°N, 3.9744°E)
Time: 21:08:33
(UTC+00:00)

Vanguard 1 Rocket - Visible Passes

Search period start: 12 December 2019 00:00
Search period end: 22 December 2019 00:00
Orbit: 650 x 4226 km, 34.3° (Epoch: 11 December)

Date Brightness Start Highest point End Pass type
(mag) Time Alt. Az. Time Alt. Az. Time Alt. Az.
12 Dec 9.7 18:47:06 10° SW 19:09:31 54° SSE 19:14:09 44° ESE visible
12 Dec 10.2 21:19:59 10° WSW 21:31:26 40° WSW 21:31:26 40° WSW visible
13 Dec 10.4 17:33:12 10° SSW 17:55:44 43° SSE 18:07:02 21° E visible
13 Dec 9.5 20:04:04 10° WSW 20:24:19 69° SSW 20:24:19 69° SSW visible
13 Dec 11.1 22:38:19 10° W 22:41:37 17° W 22:41:37 17° W visible
14 Dec 10.9 16:20:50 10° SSW 16:41:43 33° SE 16:57:23 10° E visible
14 Dec 9.7 18:48:39 10° SW 19:12:10 62° SSE 19:17:11 48° ESE visible
14 Dec 10.2 21:22:26 10° W 21:34:28 42° WSW 21:34:28 42° WSW visible
15 Dec 10.3 17:34:16 10° SW 17:58:14 51° SSE 18:10:02 22° E visible
15 Dec 9.5 20:06:15 10° WSW 20:27:19 75° SSW 20:27:19 75° SSW visible
15 Dec 11.0 22:40:57 10° W 22:44:36 18° W 22:44:36 18° W visible
16 Dec 10.8 16:21:17 10° SSW 16:44:02 40° SE 17:01:00 10° E visible
16 Dec 9.6 18:50:29 10° WSW 19:14:49 69° SSE 19:20:09 51° E visible
16 Dec 10.2 21:24:57 10° W 21:37:26 43° W 21:37:26 43° W visible
17 Dec 10.3 17:35:41 10° SW 18:00:42 59° SSE 18:12:58 24° E visible
17 Dec 9.5 20:08:36 10° WSW 20:30:15 79° SSW 20:30:15 79° SSW visible
17 Dec 11.0 22:43:34 10° W 22:47:32 19° W 22:47:32 19° W visible
18 Dec 10.8 16:22:14 10° SSW 16:46:18 47° SSE 17:04:20 10° E visible
18 Dec 9.6 18:52:33 10° WSW 19:17:28 75° SSE 19:23:03 52° E visible
18 Dec 10.2 21:27:30 10° W 21:40:20 44° W 21:40:20 44° W visible
19 Dec 10.3 17:37:25 10° SW 18:03:09 66° SSE 18:15:51 25° E visible
19 Dec 9.5 20:11:03 10° W 20:33:07 81° SW 20:33:07 81° SW visible
19 Dec 11.1 22:46:09 10° W 22:50:25 19° W 22:50:25 19° W visible
20 Dec 10.8 16:23:34 10° SW 16:48:31 55° SSE 17:07:28 10° E visible
20 Dec 9.6 18:54:48 10° WSW 19:20:09 80° S 19:25:55 53° E visible
20 Dec 10.3 21:30:03 10° W 21:43:12 44° W 21:43:12 44° W visible
21 Dec 10.3 17:39:24 10° WSW 18:05:37 73° SSE 18:18:42 25° E visible
21 Dec 9.6 20:13:32 10° W 20:35:58 82° SW 20:35:58 82° SW visible
21 Dec 11.1 22:48:44 10° W 22:53:16 20° W 22:53:16 20° W visible
